�������l�o���
Date,Time,MP-1(��Sv/h),MP-2(��Sv/h),MP-3(��Sv/h),MP-4(��Sv/h),MP-5(��Sv/h),MP-6(��Sv/h),MP-7(��Sv/h),MP-8(��Sv/h),����,����(m/s),���J
2024/06/17,00:00,0.519,0.791,0.497,0.986,0.724,0.320,0.560,0.518,�k��,2.6,��
2024/06/17,00:10,0.517,0.794,0.497,0.990,0.724,0.322,0.561,0.517,�k��,2.5,��
2024/06/17,00:20,0.518,0.794,0.497,0.986,0.725,0.323,0.561,0.516,�k��,2.3,��
2024/06/17,00:30,0.517,0.792,0.498,0.987,0.724,0.321,0.560,0.516,�k��,1.9,��
2024/06/17,00:40,0.518,0.792,0.497,0.987,0.725,0.321,0.561,0.518,�k��,2.6,��
2024/06/17,00:50,0.519,0.793,0.499,0.987,0.723,0.321,0.562,0.517,�k��,2.8,��
2024/06/17,01:00,0.519,0.792,0.498,0.989,0.723,0.322,0.561,0.517,�k�k��,3.0,��
2024/06/17,01:10,0.519,0.794,0.499,0.989,0.723,0.320,0.561,0.518,�k�k��,3.7,��
2024/06/17,01:20,0.518,0.793,0.498,0.987,0.724,0.322,0.562,0.517,�k�k��,3.1,��
2024/06/17,01:30,0.519,0.793,0.498,0.988,0.724,0.320,0.561,0.517,�k�k��,4.4,��
2024/06/17,01:40,0.518,0.793,0.497,0.990,0.722,0.322,0.561,0.518,�k��,4.6,��
2024/06/17,01:50,0.518,0.793,0.498,0.989,0.725,0.321,0.558,0.517,���k��,5.1,��
2024/06/17,02:00,0.517,0.792,0.496,0.989,0.723,0.320,0.563,0.517,���k��,4.5,��
2024/06/17,02:10,0.518,0.793,0.498,0.989,0.724,0.321,0.561,0.519,���k��,3.0,�L
2024/06/17,02:20,0.518,0.793,0.497,0.987,0.724,0.321,0.561,0.517,���k��,3.0,�L
2024/06/17,02:30,0.520,0.794,0.499,0.985,0.722,0.322,0.562,0.517,�k,1.1,�L
2024/06/17,02:40,0.519,0.793,0.498,0.990,0.726,0.321,0.561,0.516,�k��,1.2,�L
2024/06/17,02:50,0.518,0.795,0.498,0.988,0.726,0.322,0.561,0.518,�k��,0.6,��
2024/06/17,03:00,0.518,0.792,0.498,0.987,0.725,0.320,0.562,0.517,�k��,0.6,��
2024/06/17,03:10,0.519,0.794,0.498,0.987,0.724,0.322,0.561,0.517,�k�k��,1.2,��
2024/06/17,03:20,0.519,0.793,0.497,0.987,0.722,0.323,0.561,0.517,�k��,1.2,��
2024/06/17,03:30,0.519,0.791,0.497,0.987,0.723,0.321,0.561,0.517,�k�k��,1.5,��
2024/06/17,03:40,0.517,0.793,0.497,0.989,0.724,0.321,0.561,0.518,�k�k��,1.1,��
2024/06/17,03:50,0.518,0.793,0.498,0.985,0.724,0.321,0.559,0.516,�k�k��,0.8,��
2024/06/17,04:00,0.517,0.794,0.497,0.989,0.724,0.322,0.560,0.517,���k��,0.9,��
2024/06/17,04:10,0.519,0.794,0.499,0.986,0.723,0.320,0.560,0.519,�쓌,1.1,��
2024/06/17,04:20,0.519,0.793,0.498,0.988,0.723,0.321,0.562,0.517,��쓌,2.0,��
2024/06/17,04:30,0.519,0.795,0.497,0.986,0.724,0.322,0.561,0.517,��,1.7,��
2024/06/17,04:40,0.519,0.793,0.497,0.989,0.723,0.320,0.561,0.516,��,1.9,��
2024/06/17,04:50,0.518,0.795,0.497,0.989,0.724,0.322,0.560,0.519,��,3.3,��
2024/06/17,05:00,0.518,0.794,0.498,0.988,0.725,0.322,0.561,0.518,��,4.1,��
2024/06/17,05:10,0.520,0.793,0.498,0.989,0.724,0.321,0.561,0.518,��,3.4,��
2024/06/17,05:20,0.520,0.794,0.497,0.988,0.723,0.321,0.561,0.518,��쐼,3.4,��
2024/06/17,05:30,0.519,0.792,0.498,0.988,0.723,0.322,0.561,0.517,�쐼,3.0,��
2024/06/17,05:40,0.515,0.791,0.498,0.989,0.722,0.320,0.562,0.517,���쐼,2.2,��
2024/06/17,05:50,0.518,0.793,0.498,0.988,0.722,0.320,0.562,0.517,��,2.0,��
2024/06/17,06:00,0.517,0.794,0.496,0.987,0.724,0.321,0.563,0.517,���k��,2.6,��
2024/06/17,06:10,0.520,0.791,0.495,0.987,0.722,0.321,0.562,0.518,���k��,2.3,��
2024/06/17,06:20,0.517,0.793,0.497,0.986,0.721,0.320,0.561,0.516,���k��,3.0,��
2024/06/17,06:30,0.517,0.795,0.496,0.989,0.724,0.320,0.562,0.516,�k��,4.5,��
2024/06/17,06:40,0.516,0.791,0.496,0.986,0.722,0.320,0.562,0.518,��,3.4,��
2024/06/17,06:50,0.517,0.793,0.496,0.988,0.723,0.320,0.561,0.518,���k��,3.9,��
2024/06/17,07:00,0.516,0.791,0.497,0.986,0.723,0.319,0.561,0.517,���k��,3.5,��
2024/06/17,07:10,0.517,0.793,0.497,0.987,0.724,0.320,0.560,0.519,��,4.3,��
2024/06/17,07:20,0.516,0.789,0.499,0.986,0.724,0.319,0.560,0.516,��,5.0,��
2024/06/17,07:30,0.518,0.792,0.497,0.986,0.725,0.319,0.560,0.516,��,5.4,��
2024/06/17,07:40,0.516,0.790,0.495,0.987,0.723,0.320,0.559,0.516,��,5.5,��
2024/06/17,07:50,0.516,0.791,0.497,0.988,0.724,0.320,0.559,0.516,���k��,4.2,��
2024/06/17,08:00,0.519,0.791,0.496,0.987,0.722,0.321,0.559,0.515,���k��,4.3,��
2024/06/17,08:10,0.516,0.792,0.494,0.986,0.723,0.320,0.559,0.515,�k��,5.2,��
2024/06/17,08:20,0.516,0.792,0.497,0.987,0.723,0.320,0.558,0.515,�k��,3.9,��
2024/06/17,08:30,0.518,0.790,0.496,0.987,0.722,0.321,0.559,0.515,�k��,3.1,��
2024/06/17,08:40,0.516,0.791,0.496,0.987,0.723,0.319,0.559,0.516,�k�k��,2.8,��
2024/06/17,08:50,0.517,0.795,0.498,0.988,0.723,0.320,0.558,0.515,�k��,3.1,��
2024/06/17,09:00,0.517,0.791,0.497,0.988,0.726,0.319,0.560,0.515,�k��,2.8,��
2024/06/17,09:10,0.518,0.793,0.496,0.989,0.724,0.321,0.563,0.516,��,5.0,��
2024/06/17,09:20,0.518,0.794,0.497,0.988,0.725,0.320,0.561,0.517,�k��,5.6,��
2024/06/17,09:30,0.519,0.791,0.496,0.987,0.723,0.321,0.563,0.516,���k��,3.4,��
2024/06/17,09:40,0.517,0.792,0.498,0.989,0.723,0.321,0.562,0.515,���k��,4.4,��
2024/06/17,09:50,0.519,0.792,0.498,0.990,0.723,0.320,0.561,0.517,��,6.0,��
2024/06/17,10:00,0.520,0.790,0.497,0.990,0.722,0.320,0.559,0.517,��,5.2,��
2024/06/17,10:10,0.519,0.791,0.497,0.992,0.721,0.322,0.561,0.517,���쐼,6.4,��
2024/06/17,10:20,0.519,0.792,0.498,0.990,0.726,0.321,0.560,0.517,��,5.8,��
2024/06/17,10:30,0.519,0.794,0.498,0.989,0.724,0.321,0.560,0.518,��,6.9,��
2024/06/17,10:40,0.517,0.795,0.496,0.988,0.727,0.322,0.561,0.517,��,7.8,��
2024/06/17,10:50,0.519,0.793,0.498,0.989,0.723,0.320,0.560,0.518,��,8.3,��
2024/06/17,11:00,0.519,0.792,0.498,0.991,0.725,0.320,0.558,0.518,���k��,9.4,��
2024/06/17,11:10,0.520,0.795,0.498,0.989,0.728,0.320,0.560,0.518,���k��,11.3,��
2024/06/17,11:20,0.518,0.795,0.497,0.991,0.725,0.321,0.560,0.518,��,11.1,��
2024/06/17,11:30,0.521,0.795,0.498,0.990,0.726,0.319,0.559,0.518,��,10.2,��
2024/06/17,11:40,0.519,0.798,0.499,0.991,0.726,0.320,0.560,0.518,��,9.8,��
2024/06/17,11:50,0.518,0.796,0.498,0.990,0.727,0.320,0.559,0.518,��,9.3,��
2024/06/17,12:00,0.518,0.799,0.497,0.990,0.726,0.320,0.560,0.519,��,9.2,��
2024/06/17,12:10,0.521,0.793,0.497,0.990,0.727,0.320,0.561,0.517,��,8.2,��
2024/06/17,12:20,0.518,0.797,0.497,0.991,0.726,0.321,0.560,0.519,��,7.5,��
2024/06/17,12:30,0.520,0.797,0.497,0.991,0.726,0.320,0.560,0.519,��,9.0,��
2024/06/17,12:40,0.518,0.798,0.499,0.989,0.726,0.320,0.560,0.519,��,9.2,��
2024/06/17,12:50,0.519,0.795,0.495,0.990,0.726,0.320,0.559,0.518,��,7.5,��
2024/06/17,13:00,0.521,0.794,0.499,0.990,0.727,0.321,0.559,0.519,���k��,9.2,��
2024/06/17,13:10,0.518,0.795,0.498,0.992,0.728,0.321,0.560,0.519,��,5.3,��
2024/06/17,13:20,0.519,0.794,0.498,0.992,0.728,0.319,0.559,0.519,��,6.6,��
2024/06/17,13:30,0.521,0.797,0.499,0.995,0.725,0.319,0.560,0.519,��,5.5,��
2024/06/17,13:40,0.523,0.797,0.499,0.995,0.727,0.321,0.559,0.519,��,4.3,��
2024/06/17,13:50,0.521,0.794,0.500,0.991,0.728,0.321,0.561,0.520,���쐼,3.1,��
2024/06/17,14:00,0.522,0.794,0.499,0.993,0.728,0.321,0.562,0.519,���k��,3.6,��
2024/06/17,14:10,0.523,0.793,0.500,0.989,0.728,0.322,0.561,0.518,�k�k��,0.9,��
2024/06/17,14:20,0.522,0.797,0.500,0.992,0.728,0.320,0.560,0.521,��,5.7,��
2024/06/17,14:30,0.523,0.796,0.499,0.994,0.730,0.322,0.561,0.520,��,7.6,��
2024/06/17,14:40,0.522,0.795,0.500,0.993,0.729,0.322,0.561,0.520,��쓌,9.4,��
2024/06/17,14:50,0.523,0.795,0.499,0.994,0.728,0.322,0.560,0.519,��쓌,10.0,��
2024/06/17,15:00,0.522,0.795,0.499,0.995,0.727,0.322,0.560,0.519,��쓌,9.4,��
2024/06/17,15:10,0.520,0.796,0.500,0.992,0.729,0.321,0.560,0.518,��쓌,9.7,��
2024/06/17,15:20,0.519,0.795,0.498,0.994,0.726,0.320,0.560,0.517,��,7.6,��
2024/06/17,15:30,0.521,0.795,0.498,0.993,0.725,0.319,0.559,0.518,��,8.8,��
2024/06/17,15:40,0.520,0.795,0.498,0.992,0.723,0.320,0.558,0.518,��,8.4,��
2024/06/17,15:50,0.519,0.795,0.498,0.990,0.725,0.319,0.560,0.518,��,7.5,��
2024/06/17,16:00,0.519,0.793,0.496,0.991,0.726,0.320,0.559,0.518,��,7.5,��
2024/06/17,16:10,0.520,0.791,0.496,0.991,0.727,0.320,0.560,0.517,��,6.2,��
2024/06/17,16:20,0.519,0.795,0.498,0.993,0.726,0.318,0.561,0.518,��쓌,6.0,��
2024/06/17,16:30,0.520,0.794,0.498,0.992,0.726,0.320,0.560,0.518,��,6.4,��
2024/06/17,16:40,0.520,0.795,0.497,0.992,0.723,0.319,0.560,0.517,��,5.6,��
2024/06/17,16:50,0.520,0.794,0.498,0.991,0.726,0.320,0.560,0.519,��,5.7,��
2024/06/17,17:00,0.519,0.795,0.499,0.992,0.726,0.321,0.561,0.517,��,5.8,��
2024/06/17,17:10,0.521,0.793,0.497,0.991,0.726,0.319,0.560,0.519,��,5.5,��
2024/06/17,17:20,0.519,0.793,0.499,0.994,0.727,0.323,0.559,0.518,��,6.5,��
2024/06/17,17:30,0.519,0.794,0.499,0.993,0.727,0.321,0.559,0.517,��쓌,8.6,��
2024/06/17,17:40,0.520,0.794,0.500,0.994,0.728,0.321,0.560,0.518,��,8.3,��
2024/06/17,17:50,0.517,0.795,0.498,0.993,0.728,0.321,0.561,0.517,��,7.8,��
2024/06/17,18:00,0.519,0.794,0.500,0.994,0.727,0.321,0.559,0.517,��,7.0,��
2024/06/17,18:10,0.520,0.796,0.499,0.990,0.726,0.321,0.560,0.517,��,5.5,��
2024/06/17,18:20,0.520,0.796,0.499,0.991,0.728,0.320,0.559,0.518,��,6.0,��
2024/06/17,18:30,0.522,0.796,0.500,0.992,0.728,0.321,0.559,0.519,��,5.5,��
2024/06/17,18:40,0.519,0.796,0.499,0.993,0.728,0.321,0.561,0.517,��,6.7,��
2024/06/17,18:50,0.520,0.795,0.498,0.993,0.727,0.322,0.560,0.517,��,7.7,��
2024/06/17,19:00,0.521,0.796,0.501,0.993,0.726,0.320,0.560,0.517,��쐼,7.7,��
2024/06/17,19:10,0.519,0.796,0.499,0.994,0.727,0.320,0.560,0.518,��,7.9,��
2024/06/17,19:20,0.521,0.796,0.499,0.993,0.726,0.321,0.561,0.517,��쐼,6.7,��
2024/06/17,19:30,0.520,0.797,0.499,0.994,0.727,0.320,0.562,0.517,��쐼,7.5,��
2024/06/17,19:40,0.520,0.796,0.499,0.993,0.728,0.322,0.561,0.518,��,7.1,��
2024/06/17,19:50,0.519,0.796,0.499,0.994,0.729,0.320,0.561,0.519,��쐼,7.1,��
2024/06/17,20:00,0.521,0.795,0.500,0.992,0.727,0.322,0.559,0.518,��,7.4,��
2024/06/17,20:10,0.519,0.797,0.499,0.992,0.728,0.321,0.561,0.518,��,7.6,��
2024/06/17,20:20,0.520,0.794,0.498,0.993,0.728,0.322,0.560,0.518,��쐼,7.0,��
2024/06/17,20:30,0.520,0.794,0.498,0.992,0.729,0.320,0.560,0.517,��쐼,6.7,��
2024/06/17,20:40,0.520,0.797,0.498,0.995,0.727,0.321,0.559,0.517,��쐼,7.0,��
2024/06/17,20:50,0.519,0.797,0.499,0.993,0.727,0.322,0.560,0.518,��쐼,6.8,��
2024/06/17,21:00,0.520,0.796,0.499,0.993,0.728,0.321,0.560,0.518,��쐼,7.6,��
2024/06/17,21:10,0.519,0.794,0.500,0.990,0.726,0.320,0.560,0.518,��,7.4,��
2024/06/17,21:20,0.520,0.797,0.499,0.992,0.727,0.321,0.561,0.517,��쐼,7.9,��
2024/06/17,21:30,0.520,0.796,0.499,0.992,0.727,0.322,0.560,0.517,��쐼,7.7,��
2024/06/17,21:40,0.519,0.795,0.498,0.993,0.727,0.321,0.560,0.518,��쐼,7.5,��
2024/06/17,21:50,0.520,0.793,0.499,0.993,0.727,0.319,0.561,0.518,��,8.5,��
2024/06/17,22:00,0.520,0.794,0.497,0.991,0.728,0.322,0.561,0.518,��쐼,7.6,��
2024/06/17,22:10,0.519,0.793,0.499,0.992,0.728,0.321,0.559,0.518,��쐼,7.4,��
2024/06/17,22:20,0.518,0.793,0.498,0.994,0.726,0.321,0.560,0.517,��쐼,6.7,��
2024/06/17,22:30,0.518,0.795,0.499,0.993,0.727,0.322,0.561,0.516,��쐼,7.2,��
2024/06/17,22:40,0.518,0.796,0.496,0.992,0.727,0.319,0.560,0.518,��쐼,5.9,��
2024/06/17,22:50,0.518,0.793,0.498,0.992,0.728,0.322,0.560,0.518,��쐼,6.1,��
2024/06/17,23:00,0.518,0.794,0.499,0.992,0.728,0.319,0.562,0.516,��쐼,5.7,��
2024/06/17,23:10,0.518,0.794,0.497,0.991,0.726,0.321,0.560,0.519,��,6.3,��
2024/06/17,23:20,0.518,0.796,0.497,0.993,0.726,0.320,0.560,0.518,��쐼,5.4,��
2024/06/17,23:30,0.520,0.793,0.497,0.991,0.727,0.321,0.560,0.518,��,5.5,��
2024/06/17,23:40,0.519,0.794,0.499,0.989,0.726,0.321,0.561,0.518,��,4.8,��
2024/06/17,23:50,0.519,0.796,0.500,0.991,0.726,0.321,0.560,0.517,��,5.1,��
